QPS-SAR-1 IZANAGI

导读

QPS-SAR-1(IZANAGI,伊邪那岐)是日本地球成像企业iQPS发射的首颗合成孔径雷达卫星,于2019年12月11日发射入轨。作为QPS-SAR星座的开篇成员,它具备全天候、全天时对地观测能力,可穿透云层实现高分辨率成像,为灾害监测、地表观测等领域提供数据支撑,标志着日本商业SAR卫星星座部署正式启动,助力推动全球地球观测服务的商业化发展。

基本信息
目录编号:
44856
目录名称:
QPS-SAR-1 IZANAGI
国际标识:
2019-089E
轨道中心:
EARTH
卫星名称:
QPS-SAR-1 IZANAGI
卫星全名:
--
卫星状态:
已陨落 最后检测时间 2024-10-03
发射日期:
2019-12-11 UTC
国别 :
日本 (JP)
星等 :
--
轨道信息
数据来源 国际轨道数据
星历时间: 2024-09-27T20:52:15+0800
轨道信息已过期654天
半长轴: 6677.211km
偏心率: 0.001774
轨道倾角: 36.942°
近地点辐角 347.333°
升交点赤经 74.797°
平近点角 350.908°
近地点: 287.23km
远地点: 310.922km
周期: 90.501分钟
每日圈数: 15.911465
详细信息
使用方式:
暂无